Regional Weather Roundup
Issued by NWS

Home | Current Version | Previous Version | Text Only | Print | Product List | Glossary On
Versions: 1 2 3 4 5 6 7 8 9 10 11 12 13 14 15 16 17 18 19 20 21 22 23 24 25 26 27 28 29 30 31 32 33 34 35 36 37 38 39 40 41 42 43 44 45 46 47 48 49 50
000
ASUS42 KKEY 041910
RWRKEY

FLORIDA REGIONAL WEATHER ROUNDUP FOR THE FLORIDA KEYS
NATIONAL WEATHER SERVICE KEY WEST FLORIDA
200 PM EST WED MAR 04 2015

...SOUTH FLORIDA AND THE KEYS...

CITY           SKY/WX    TMP DP  RH WIND       PRES   REMARKS
FORT MYERS     MOSUNNY   85  64  49 VRB7      30.08F
SW REGIONAL AP MOSUNNY   86  62  44 S13       30.09F
NAPLES         MOSUNNY   84  66  54 S12G17    30.09F
MIAMI          PTSUNNY   79  66  64 SE17      30.12F
WEST KENDALL   PTSUNNY   79  66  64 SE15G22   30.12S
HOMESTEAD      SUNNY     80  67  64 E10G18    30.11F
MARATHON       MOSUNNY   82  71  69 VRB7G16   30.10F
BOCA CHICA NAS MOSUNNY   81  69  67 SE14      30.09F
KEY WEST INTL  SUNNY     81  71  71 SE12      30.10F

...INTERNATIONAL WEATHER...

CITY           SKY/WX    TMP DP  RH WIND       PRES   REMARKS
NASSAU BAHAMAS MOSUNNY   79  66  65 SE12      30.14F
CANCUN MEXICO  MOSUNNY   82  70  65 SE22      29.98F
COZUMEL MEXICO MOSUNNY   81  70  69 E16       29.98F

ADJACENT COASTAL WATERS...

STATION/POSITION TIME  SKY/WX   TEMP    WIND        PRES    WAVE
                                AIR SEA DIR/SP/G            HT/PER
                 (UTC)          (F)     (DEG/KT/KT) (MB)    (FT/S)
PULASKI SHOAL LI 1800            75     120/  8/  8 1019.2F
SAND KEY         1850            76     120/ 14/ 16 1018.9F
SOMBRERO KEY     1900            78     110/ 16/ 17 1019.7F
LONG KEY         1800            78 78  120/ 11/ 13 1020.8F
MOLASSES REEF    1900            76 76  120/ 13/ 14 1019.6F
FOWEY ROCKS      NOT AVBL
Buoy 42080       NOT AVBL

$$


USA.gov is the U.S. government's official web portal to all federal, state and local government web resources and services.